This demonstration page uses our WeatherBlox Daily Observations layout. Learn more.

Left ArrowRight Arrow

Hourly Observations for June 26, 2022

Temp ( °F °C ) Dew Point ( °F °C ) Humidity (%) Winds ( mph kmh ) Pressure ( in mb ) Visibility ( mi km ) Precip ( " mm )
12:15 am 00:15 Clear 55 12.8 45 7 68 68 N 6 9 30.32 1027 10 16 0.00 0.00
12:35 am 00:35 Clear 56 13.4 44 6.6 64 64 N 3 6 30.32 1027 10 16 0.00 0.00
12:55 am 00:55 Clear 54 12.3 46 8 75 75 W 3 6 30.32 1027 10 16 0.00 0.00
1:15 am 01:15 Clear 54 12.2 46 7.9 75 75 W 3 6 30.33 1027 10 16 0.00 0.00
1:35 am 01:35 Clear 56 13.2 45 7 66 66 NW 6 9 30.32 1027 10 16 0.00 0.00
1:55 am 01:55 Clear 56 13.1 44 6.9 66 66 NW 5 7 30.32 1027 10 16 0.00 0.00
2:15 am 02:15 Clear 55 12.9 44 6.6 66 66 NW 6 9 30.32 1027 10 16 0.00 0.00
2:35 am 02:35 Clear 54 12.4 46 7.7 73 73 WNW 8 13 30.32 1027 10 16 0.00 0.00
2:55 am 02:55 Clear 53 11.9 45 7.4 74 74 Calm 30.33 1027 10 16 0.00 0.00
3:15 am 03:15 Clear 54 12 46 7.7 75 75 WNW 8 13 30.32 1027 10 16 0.00 0.00
3:35 am 03:35 Clear 53 11.7 46 7.5 76 76 W 7 11 30.34 1027 10 16 0.00 0.00
3:55 am 03:55 Clear 53 11.5 46 8 79 79 W 5 7 30.34 1027 10 16 0.00 0.00
4:15 am 04:15 Clear 52 11.2 46 7.8 80 80 W 3 6 30.35 1028 10 16 0.00 0.00
4:35 am 04:35 Clear 52 11 46 7.9 81 81 WSW 3 6 30.36 1028 10 16 0.00 0.00
4:55 am 04:55 Clear 53 11.9 47 8.2 78 78 NW 9 15 30.34 1028 10 16 0.00 0.00
5:15 am 05:15 Clear 56 13.1 45 7.3 68 68 NNW 7 11 30.33 1027 10 16 0.00 0.00
5:35 am 05:35 Clear 54 12.1 46 7.5 74 74 NNW 6 9 30.35 1028 10 16 0.00 0.00
5:55 am 05:55 Clear 54 12.1 44 6.6 69 69 NNW 6 9 30.36 1028 10 16 0.00 0.00
6:15 am 06:15 Sunny 53 11.7 43 6.1 69 69 Calm 30.39 1029 10 16 0.00 0.00
6:35 am 06:35 Sunny 51 10.7 43 6.1 73 73 N 7 11 30.40 1030 10 16 0.00 0.00
6:50 am 06:50 Sunny 52 11.2 43 6.1 71 71 N 5 7 30.40 1029 10 16 0.00 0.00
7:15 am 07:15 Sunny 55 13 45 7.1 68 68 NW 3 6 30.40 1030 10 16 0.00 0.00
7:35 am 07:35 Sunny 57 14 44 6.8 62 62 NW 3 6 30.40 1030 10 16 0.00 0.00
7:55 am 07:55 Sunny 58 14.2 45 7.1 63 63 Calm 30.41 1030 10 16 0.00 0.00
8:15 am 08:15 Sunny 58 14.5 46 7.9 65 65 W 5 7 30.42 1030 10 16 0.00 0.00
8:35 am 08:35 Sunny 59 14.8 44 6.9 59 59 NNW 3 6 30.42 1030 10 16 0.00 0.00
8:55 am 08:55 Sunny 59 15.2 43 6.1 55 55 Calm 30.41 1030 10 16 0.00 0.00
9:15 am 09:15 Sunny 61 16 43 5.9 51 51 N 5 7 30.42 1030 10 16 0.00 0.00
9:35 am 09:35 Sunny 61 16.3 42 5.7 50 50 NNE 6 9 30.41 1030 10 16 0.00 0.00
9:55 am 09:55 Mostly Cloudy 62 16.5 44 6.4 51 51 ENE 5 7 30.41 1030 10 16 0.00 0.00
10:15 am 10:15 Cloudy 62 16.6 43 6.3 51 51 ENE 3 6 30.42 1030 10 16 0.00 0.00
10:35 am 10:35 Cloudy 62 16.9 42 5.4 47 47 Calm 30.42 1030 10 16 0.00 0.00
10:55 am 10:55 Mostly Cloudy 63 17 41 5.1 46 46 NE 3 6 30.42 1030 10 16 0.00 0.00
11:15 am 11:15 Mostly Cloudy 63 17 41 5.1 46 46 Calm 30.42 1030 10 16 0.00 0.00
11:35 am 11:35 Mostly Cloudy 63 17.2 41 5.2 45 45 Calm 30.42 1030 10 16 0.00 0.00
11:55 am 11:55 Mostly Cloudy 63 17.1 44 6.9 51 51 W 6 9 30.42 1030 10 16 0.00 0.00
12:15 pm 12:15 Mostly Cloudy 63 17.2 44 6.8 51 51 W 8 13 30.42 1030 10 16 0.00 0.00
12:35 pm 12:35 Mostly Cloudy 64 17.5 43 6.1 47 47 W 8 13 30.41 1030 10 16 0.00 0.00
12:55 pm 12:55 Partly Cloudy 65 18.4 43 5.9 44 44 WSW 5 7 30.39 1029 10 16 0.00 0.00
1:15 pm 13:15 Partly Cloudy 66 19.1 43 6.1 43 43 WSW 5 7 30.38 1029 10 16 0.00 0.00
1:35 pm 13:35 Sunny 69 20.4 43 6.2 40 40 W 5 7 30.36 1028 10 16 0.00 0.00
1:55 pm 13:55 Sunny 70 20.9 43 6.2 39 39 WNW 5 7 30.34 1028 10 16 0.00 0.00
2:15 pm 14:15 Sunny 71 21.7 44 6.4 37 37 WNW 8 13 30.33 1027 10 16 0.00 0.00
2:35 pm 14:35 Sunny 72 22 43 6.3 36 36 W 3 6 30.31 1027 10 16 0.00 0.00
2:55 pm 14:55 Sunny 74 23.1 44 6.5 34 34 N 5 7 30.29 1026 10 16 0.00 0.00
3:15 pm 15:15 Sunny 73 22.9 42 5.7 33 33 NNE 7 11 30.30 1026 10 16 0.00 0.00
3:35 pm 15:35 Sunny 74 23.5 43 6.1 33 33 WNW 6 9 30.28 1025 10 16 0.00 0.00
3:55 pm 15:55 Sunny 75 23.7 43 6.1 32 32 NNW 7 11 30.27 1025 10 16 0.00 0.00
4:15 pm 16:15 Sunny 76 24.3 43 5.9 31 31 W 6 9 30.24 1024 10 16 0.00 0.00
4:35 pm 16:35 Sunny 76 24.6 44 6.5 31 31 W 8 13 30.24 1024 10 16 0.00 0.00
4:55 pm 16:55 Sunny 76 24.6 44 6.4 31 31 W 8 13 30.24 1024 10 16 0.00 0.00
5:15 pm 17:15 Sunny 77 25 44 6.6 31 31 NW 6 9 30.23 1024 10 16 0.00 0.00
5:35 pm 17:35 Sunny 77 25.2 43 6.3 30 30 W 6 9 30.22 1023 10 16 0.00 0.00
5:55 pm 17:55 Sunny 76 24.7 43 6.2 31 31 W 6 9 30.22 1023 10 16 0.00 0.00
6:15 pm 18:15 Sunny 77 25 43 6.3 30 30 NW 3 6 30.21 1023 10 16 0.00 0.00
6:35 pm 18:35 Sunny 78 25.4 41 5.2 27 27 W 6 9 30.21 1023 10 16 0.00 0.00
6:55 pm 18:55 Sunny 77 25 45 7.1 32 32 WNW 3 6 30.21 1023 10 16 0.00 0.00
7:15 pm 19:15 Sunny 77 25.2 42 5.4 28 28 N 6 9 30.21 1023 10 16 0.00 0.00
7:35 pm 19:35 Sunny 77 25 41 5.2 28 28 Calm 30.21 1023 10 16 0.00 0.00
7:55 pm 19:55 Sunny 76 24.4 43 6.2 31 31 N 3 6 30.21 1023 10 16 0.00 0.00
8:15 pm 20:15 Sunny 74 23.3 48 9.1 41 41 Calm 30.22 1023 10 16 0.00 0.00
8:35 pm 20:35 Sunny 73 23 46 7.9 38 38 Calm 30.24 1024 10 16 0.00 0.00
8:55 pm 20:55 Sunny 72 22.1 46 7.8 40 40 Calm 30.24 1024 10 16 0.00 0.00
9:15 pm 21:15 Clear 71 21.6 44 6.8 38 38 Calm 30.25 1024 10 16 0.00 0.00
9:35 pm 21:35 Clear 65 18.6 47 8.2 51 51 Calm 30.27 1025 10 16 0.00 0.00
9:55 pm 21:55 Clear 66 18.7 46 7.7 49 49 Calm 30.28 1025 10 16 0.00 0.00
10:15 pm 22:15 Clear 64 17.7 46 7.8 53 53 Calm 30.29 1026 10 16 0.00 0.00
10:35 pm 22:35 Clear 62 16.9 45 7.4 54 54 Calm 30.31 1026 10 16 0.00 0.00
10:55 pm 22:55 Clear 62 16.4 51 10.5 68 68 SW 3 6 30.32 1027 10 16 0.00 0.00
11:15 pm 23:15 Clear 60 15.4 51 10.5 73 73 SW 3 6 30.33 1027 10 16 0.00 0.00
11:35 pm 23:35 Clear 58 14.7 51 10.4 76 76 Calm 30.35 1028 10 16 0.00 0.00
11:55 pm 23:55 Clear 59 15.1 51 10.3 73 73 Calm 30.33 1027 10 16 0.00 0.00

Powered by AerisWeather